Location: Unspecified
(0.0000°N, 0.0000°E)
Time: 22:27:27
(UTC+01:00)

Meteor 2-8 Rocket - Visible Passes

Search period start: 17 December 2014 00:00
Search period end: 27 December 2014 00:00
Orbit: 937 x 958 km, 82.5° (Epoch: 17 December)

Date Brightness Start Highest point End Pass type
(mag) Time Alt. Az. Time Alt. Az. Time Alt. Az.
17 Dec 6.0 19:59:51 14° E 19:59:51 14° E 20:02:02 10° ESE visible
17 Dec 5.6 21:43:48 38° WSW 21:43:48 38° WSW 21:48:49 10° SSW visible
18 Dec 5.2 20:15:11 28° ENE 20:15:40 28° E 20:20:42 10° SE visible
18 Dec 6.4 21:59:08 20° W 22:00:10 21° W 22:04:35 10° SW visible
19 Dec 4.5 20:30:13 34° NNE 20:32:33 51° E 20:38:24 10° SSE visible
19 Dec 7.1 22:15:53 10° W 22:17:05 11° W 22:18:16 10° WSW visible
20 Dec 4.3 20:44:40 17° N 20:49:27 87° W 20:55:31 10° S visible
21 Dec 6.1 19:19:54 10° ENE 19:21:51 12° E 19:23:48 10° ESE visible
21 Dec 5.2 21:00:36 10° NNW 21:06:21 48° W 21:12:09 10° SSW visible
22 Dec 5.5 19:34:11 10° NE 19:38:45 23° E 19:43:20 10° SE visible
22 Dec 6.3 21:18:22 10° NW 21:23:16 26° W 21:28:12 10° SSW visible
23 Dec 4.8 19:50:02 10° NNE 19:55:39 41° E 20:01:17 10° SSE visible
23 Dec 7.1 21:37:15 10° WNW 21:40:10 14° W 21:43:07 10° WSW visible
24 Dec 4.3 20:06:32 10° N 20:12:33 76° E 20:18:36 10° S visible
25 Dec 4.9 20:23:33 10° NNW 20:29:27 60° W 20:35:24 10° S visible
26 Dec 6.1 20:41:04 10° NNW 20:46:21 33° W 20:51:41 10° SSW visible
